{"data":{"norad_id":57883,"intl_designator":"2023-144V","name":"STARLINK-30282","alt_names":[],"object_type":"PAYLOAD","status":"ACTIVE","operator":null,"country":"US","launch_date":"2023-09-16","launch_site_code":"AFETR","launch_vehicle":null,"mission":null,"orbit_class":"UNKNOWN","rcs_meters":null,"size_class":null,"mass_kg":null,"dimensions":null,"purposes":["comms"],"wikipedia_slug":null,"has_3d_model":false,"image_url":null,"decayed_at":null,"tle_current":{"epoch":"2026-09-20T08:33:06.057504Z","epoch_age_seconds":146657,"freshness":"FRESH","line1":"1 57883U 23144V   26263.35632011  .00000735  00000+0  36226-4 0  9992","line2":"2 57883  43.0015 265.4472 0001310 265.4980  94.5722 15.27578188167415","mean_motion":15.27578188,"eccentricity":0.000131,"inclination_deg":43.0015,"raan_deg":265.4472,"arg_perigee_deg":265.498,"mean_anomaly_deg":94.5722,"bstar":3.6226e-5,"rev_number":16741,"period_min":94.266860532052,"perigee_km":482.15570573552,"apogee_km":483.95333791424,"semimajor_km":6861.1915218249,"source":"CELESTRAK","updated_at":"2026-09-21T09:00:33.719586Z"}}}